George, South Africa

4:47 PM SAST on October 20, 2017 (GMT +0200)
George

Weather History for FAGG - November, 2012

Change the Weather History Date:

Saturday, November 3, 2012

  Actual Average Record
Temperature  
Mean Temperature 64 °F -  
Max Temperature 77 °F 69 °F 79 °F (2014)
Min Temperature 50 °F 53 °F 48 °F (2015)
Degree Days  
Heating Degree Days 2    
Growing Degree Days 14 (Base 50)    
Moisture  
Dew Point 54 °F    
Average Humidity 79    
Maximum Humidity 94    
Minimum Humidity 50    
Precipitation  
Precipitation 0.00 in - - ()
Sea Level Pressure  
Sea Level Pressure 29.86 in    
Wind  
Wind Speed 4 mph ()    
Max Wind Speed 8 mph    
Max Gust Speed -    
Visibility 5.4 miles    
Events Fog    
Averages and records for this station are not official NWS values.
T = Trace of Precipitation, MM = Missing Value Source: Averaged Metar Reports

Daily Weather History Graph

Daily Weather History Graph

Search for Another Location

Airport or City:

Trip Planner

Search our weather history database for the weather conditions in past years. The results will help you decide how hot, cold, wet, or windy it might be!

Date:

Astronomy

Nov. 03, 2012 Rise Set
Actual Time 5:27 AM SAST 7:00 PM SAST
Civil Twilight 5:00 AM SAST 7:27 PM SAST
Nautical Twilight 4:28 AM SAST 7:59 PM SAST
Astronomical Twilight 3:55 AM SAST 8:33 PM SAST
Moon 11:00 PM SAST (11/3) 8:37 AM SAST (11/3)
Length of Visible Light 14h 26m
Length of Day
13h 33m
Waning Gibbous, 82% of the Moon is Illuminated
Nov 3
Waning Gibbous
Nov 7
Last Quarter
Nov 14
New
Nov 20
First Quarter
Nov 28
Full

Hourly Weather History & Observations

Time (SAST) Temp. Dew Point Humidity Pressure Visibility Wind Dir Wind Speed Gust Speed Precip Events Conditions
12:00 AM 53.6 °F 50.0 °F 88% 29.95 in 5.0 mi West 3.5 mph - N/A   Unknown
1:00 AM 53.6 °F 50.0 °F 88% 29.92 in 4.3 mi West 3.5 mph - N/A   Unknown
2:00 AM 53 °F 51 °F 92% 29.91 in 5 mi WNW 2.3 mph - -  
2:00 AM 53.6 °F 51.8 °F 94% 29.89 in 5.6 mi Variable 1.2 mph - N/A   Unknown
3:00 AM 51.8 °F 50.0 °F 94% 29.89 in 5.0 mi Calm Calm - N/A   Unknown
4:00 AM 51.8 °F 50.0 °F 94% 29.86 in 4.3 mi WNW 3.5 mph - N/A   Mist
5:00 AM 51 °F 50 °F 94% 29.89 in 4 mi West 4.6 mph - -   Mist
5:00 AM 51.8 °F 50.0 °F 94% 29.86 in 3.7 mi WNW 4.6 mph - N/A   Scattered Clouds
6:00 AM 51.8 °F 50.0 °F 94% 29.89 in 0.2 mi WSW 3.5 mph - N/A Fog Fog
7:00 AM 53.6 °F 51.8 °F 94% 29.89 in 0.2 mi NW 3.5 mph - N/A Fog Fog
8:00 AM 56 °F 54 °F 91% 29.89 in 1 mi WSW 3.5 mph - - Fog Heavy Fog
8:00 AM 55.4 °F 53.6 °F 94% 29.89 in 0.6 mi Variable 2.3 mph - N/A Fog Fog
9:00 AM 59.0 °F 57.2 °F 94% 29.86 in 5.6 mi West 4.6 mph - N/A   Partly Cloudy
10:00 AM 68.0 °F 57.2 °F 68% 29.86 in - WNW 3.5 mph - N/A   Clear
11:00 AM 72 °F 60 °F 57% 29.83 in 12 mi WSW 3.5 mph - -   Scattered Clouds
11:00 AM 73.4 °F 60.8 °F 65% 29.83 in - Variable 2.3 mph - N/A   Clear
12:00 PM 77.0 °F 57.2 °F 50% 29.83 in - SSE 4.6 mph - N/A   Clear
1:00 PM 71.6 °F 57.2 °F 60% 29.80 in - SSE 5.8 mph - N/A   Clear
2:00 PM 71 °F 59 °F 57% 29.83 in 12 mi SSE 8.1 mph - -   Scattered Clouds
2:00 PM 71.6 °F 57.2 °F 60% 29.80 in - SSE 8.1 mph - N/A   Clear
3:00 PM 71.6 °F 57.2 °F 60% 29.80 in - South 5.8 mph - N/A   Clear
4:00 PM 73.4 °F 53.6 °F 50% 29.80 in - SW 4.6 mph - N/A   Clear
5:00 PM 66 °F 54 °F 57% 29.83 in 12 mi SSW 5.8 mph - -   Scattered Clouds
5:00 PM 66.2 °F 55.4 °F 68% 29.83 in - SSW 5.8 mph - N/A   Clear
6:00 PM 64.4 °F 53.6 °F 68% 29.83 in - SW 6.9 mph - N/A   Clear
7:00 PM 57.2 °F 53.6 °F 88% 29.86 in - West 3.5 mph - N/A   Clear
8:00 PM 57 °F 54 °F 86% 29.88 in 12 mi West 5.8 mph - -   Clear
8:00 PM 57.2 °F 53.6 °F 88% 29.86 in - West 5.8 mph - N/A   Clear
9:00 PM 55.4 °F 53.6 °F 94% 29.89 in 5.6 mi SW 6.9 mph - N/A   Unknown
10:00 PM 55.4 °F 53.6 °F 94% 29.89 in 5.0 mi WNW 4.6 mph - N/A   Unknown
11:00 PM 57.2 °F 53.6 °F 88% 29.89 in - West 5.8 mph - N/A   Clear